FW6402 Weather Reports


time (UTC)temp
C
wind
direction
speed
KPH
gust
KPH
rain 1hr
cm
rain 24hr
cm
rain mn
cm
humidity
%
barometer
mb
20260503181346 25 58 4.8 9.7 0.00 0.00 0.00 49 1013.1
20260503180842 26 37 1.6 8.0 0.00 0.00 0.00 49 1013.1
20260503180342 25 129 3.2 8.0 0.00 0.00 0.00 49 1013.1
20260503175840 25 126 0.0 9.7 0.00 0.00 0.00 54 1013.1
20260503175338 23 84 4.8 9.7 0.00 0.00 0.00 51 1013.1
20260503174828 23 37 4.8 11.3 0.00 0.00 0.00 52 1013.2
20260503174354 23 7 4.8 11.3 0.00 0.00 0.00 53 1013.2
20260503173852 23 55 4.8 11.3 0.00 0.00 0.00 53 1013.4
20260503173350 23 23 3.2 8.0 0.00 0.00 0.00 54 1013.4
20260503172844 23 114 3.2 9.7 0.00 0.00 0.00 54 1013.5
20260503172410 23 37 4.8 9.7 0.00 0.00 0.00 54 1013.6
20260503171846 22 82 1.6 8.0 0.00 0.00 0.00 56 1013.6
20260503171402 22 27 4.8 8.0 0.00 0.00 0.00 56 1013.7
20260503170901 22 45 1.6 9.7 0.00 0.00 0.00 59 1013.7
20260503170337 21 70 4.8 9.7 0.00 0.00 0.00 57 1013.7
20260503150843 15 103 0.0 1.6 0.00 0.00 0.00 85 1014.1
20260503150357 15 250 0.0 0.0 0.00 0.00 0.00 87 1014.1
20260503131332 11 50 0.0 0.0 0.00 0.00 0.00 95 1013.8
20260503130829 11 50 0.0 1.6 0.00 0.00 0.00 94 1013.8
20260503130348 11 49 0.0 1.6 0.00 0.00 0.00 94 1013.9
20260503110348 11 65 0.0 0.0 0.00 0.00 0.00 93 1014.2
20260503090334 12 68 0.0 0.0 0.00 0.00 0.00 91 1014.4
20260503081355 13 41 0.0 0.0 0.00 0.03 0.00 90 1014.5
20260503080832 13 41 0.0 0.0 0.00 0.03 0.00 90 1014.5
20260503080330 13 42 0.0 0.0 0.00 0.03 0.00 90 1014.6
20260503072836 13 356 0.0 0.0 0.00 0.03 0.00 89 1014.5
20260503072328 13 358 0.0 1.6 0.00 0.03 0.00 89 1014.5
20260503071835 13 358 0.0 1.6 0.00 0.03 0.00 89 1014.6
20260503071331 14 358 0.0 1.6 0.00 0.03 0.00 89 1014.6
20260503070830 14 358 0.0 1.6 0.00 0.03 0.00 88 1014.5
20260503070343 14 319 0.0 1.6 0.00 0.03 0.00 88 1014.6
20260503054829 16 63 1.6 4.8 0.00 0.03 0.03 83 1014.8
20260503054347 16 74 1.6 4.8 0.00 0.03 0.03 83 1014.6
20260503053845 16 74 3.2 4.8 0.00 0.03 0.03 83 1014.7
20260503053411 16 98 1.6 1.6 0.00 0.03 0.03 83 1014.6
20260503052843 16 203 0.0 1.6 0.00 0.03 0.03 82 1014.6
20260503052340 16 23 0.0 1.6 0.00 0.03 0.03 82 1014.5
20260503051846 16 23 0.0 1.6 0.00 0.03 0.03 82 1014.4
20260503051341 16 240 0.0 4.8 0.00 0.03 0.03 81 1014.4
20260503050839 16 240 1.6 4.8 0.00 0.03 0.03 81 1014.5
20260503050336 16 210 3.2 4.8 0.00 0.03 0.03 80 1014.5
20260503045857 17 229 1.6 3.2 0.00 0.03 0.03 79 1014.3
20260503045333 17 235 1.6 3.2 0.00 0.03 0.03 78 1014.3
20260503044829 17 322 0.0 6.4 0.00 0.03 0.03 79 1014.3
20260503044346 17 21 0.0 6.4 0.00 0.03 0.03 79 1014.4
20260503043843 17 8 0.0 6.4 0.00 0.03 0.03 79 1014.6
20260503043336 17 32 3.2 8.0 0.00 0.03 0.03 78 1014.7
20260503042837 17 86 4.8 9.7 0.00 0.03 0.03 78 1014.7
20260503042335 17 70 6.4 9.7 0.00 0.03 0.03 78 1014.6
20260503041832 17 56 3.2 6.4 0.00 0.03 0.03 78 1014.5
20260503041329 17 56 3.2 6.4 0.00 0.03 0.03 78 1014.4
20260503040845 17 37 3.2 4.8 0.00 0.03 0.03 78 1014.5
20260503040341 17 77 1.6 3.2 0.00 0.03 0.03 78 1014.5
20260503035846 17 19 0.0 3.2 0.00 0.03 0.03 79 1014.4
20260503035343 17 18 1.6 3.2 0.00 0.03 0.03 78 1014.4
20260503034901 17 68 0.0 3.2 0.00 0.03 0.03 78 1014.5
20260503034337 17 359 1.6 3.2 0.00 0.03 0.03 77 1014.5
20260503033855 17 60 1.6 4.8 0.00 0.03 0.03 77 1014.5
20260503033330 17 85 3.2 4.8 0.00 0.03 0.03 76 1014.5
20260503032848 17 72 1.6 4.8 0.00 0.03 0.03 76 1014.5
20260503032344 17 108 1.6 4.8 0.00 0.03 0.03 76 1014.6
20260503031841 17 107 1.6 3.2 0.00 0.03 0.03 75 1014.4
20260503031328 18 91 0.0 4.8 0.00 0.03 0.03 75 1014.4
20260503030835 18 167 0.0 4.8 0.00 0.03 0.03 75 1014.3
20260503030332 18 35 3.2 4.8 0.00 0.03 0.03 74 1014.1
20260503025830 18 210 1.6 4.8 0.00 0.03 0.03 74 1014.1
20260503025347 18 353 0.0 1.6 0.00 0.03 0.03 74 1014.1
20260503024845 18 276 0.0 1.6 0.00 0.03 0.03 73 1014.3
20260503024336 18 276 0.0 1.6 0.00 0.03 0.03 73 1014.3
20260503023842 18 16 0.0 1.6 0.00 0.03 0.03 73 1014.4
20260503023339 18 259 0.0 4.8 0.00 0.03 0.03 73 1014.5
20260503022835 18 121 0.0 4.8 0.00 0.03 0.03 73 1014.4
20260503022331 18 13 1.6 4.8 0.00 0.03 0.03 73 1014.5
20260503021848 18 221 1.6 4.8 0.00 0.03 0.03 72 1014.5
20260503021344 18 325 1.6 6.4 0.00 0.03 0.03 73 1014.4
20260503020851 19 233 3.2 11.3 0.00 0.03 0.03 72 1014.5
20260503020350 20 233 3.2 11.3 0.00 0.03 0.03 70 1014.4
20260503015846 20 259 4.8 11.3 0.00 0.03 0.03 68 1014.3
20260503015343 21 262 3.2 6.4 0.00 0.03 0.03 67 1014.1
20260503014840 21 221 3.2 6.4 0.00 0.03 0.03 65 1013.8
20260503014356 22 254 1.6 4.8 0.00 0.03 0.03 62 1013.7
20260503013834 22 165 0.0 1.6 0.00 0.03 0.03 60 1013.5
20260503013352 22 165 0.0 1.6 0.00 0.03 0.03 60 1013.5
20260503012830 22 235 0.0 1.6 0.00 0.03 0.03 60 1013.5
20260503012348 22 235 0.0 1.6 0.00 0.03 0.03 60 1013.4
20260503011913 22 239 0.0 3.2 0.00 0.03 0.03 59 1013.5
20260503011350 22 248 1.6 3.2 0.00 0.03 0.03 58 1013.5
20260503010848 22 224 0.0 1.6 0.00 0.03 0.03 57 1013.4
20260503010400 22 69 0.0 1.6 0.00 0.03 0.03 58 1013.3
20260503005837 22 68 0.0 1.6 0.00 0.03 0.03 58 1013.3
20260503005334 22 72 0.0 3.2 0.00 0.03 0.03 58 1013.4
20260503004900 22 275 1.6 3.2 0.00 0.03 0.03 59 1013.2
20260503004337 22 304 0.0 3.2 0.00 0.03 0.03 58 1013.4
20260503003856 22 65 1.6 3.2 0.00 0.03 0.03 58 1013.4
20260503003333 22 246 1.6 4.8 0.00 0.03 0.03 57 1013.3
20260503002918 22 105 0.0 4.8 0.00 0.03 0.03 58 1013.3
20260503002353 22 255 0.0 4.8 0.00 0.03 0.03 57 1013.3
20260503001847 22 37 1.6 4.8 0.00 0.03 0.03 57 1013.3
20260503001405 22 301 0.0 6.4 0.00 0.03 0.03 59 1013.2
20260503000911 22 239 1.6 8.0 0.00 0.03 0.03 57 1013.1
20260503000329 23 226 0.0 3.2 0.00 0.03 0.03 57 1013.2
20260502235844 22 251 0.0 4.8 0.00 0.03 0.03 59 1013.2
20260502235341 22 251 0.0 4.8 0.00 0.03 0.03 58 1013.2
20260502234840 22 266 1.6 8.0 0.00 0.03 0.03 59 1013.3
20260502234337 23 255 3.2 8.0 0.00 0.03 0.03 57 1013.3
20260502233835 23 283 1.6 3.2 0.00 0.03 0.03 56 1013.4
20260502233328 23 244 1.6 3.2 0.00 0.03 0.03 57 1013.6
20260502232846 22 236 1.6 8.0 0.00 0.03 0.03 58 1013.7
20260502232343 22 248 1.6 8.0 0.00 0.03 0.03 59 1013.7
20260502231840 22 264 1.6 6.4 0.00 0.03 0.03 58 1013.8
20260502231407 22 73 3.2 6.4 0.00 0.03 0.03 59 1013.8
20260502230843 22 102 1.6 8.0 0.00 0.03 0.03 60 1014.0
20260502230342 22 270 3.2 8.0 0.00 0.03 0.03 59 1014.1
20260502225859 22 120 0.0 8.0 0.00 0.03 0.03 59 1014.0
20260502225403 22 78 3.2 6.4 0.00 0.03 0.03 58 1014.1
20260502224836 22 22 1.6 6.4 0.00 0.03 0.03 59 1014.2
20260502224356 22 52 0.0 9.7 0.00 0.03 0.03 59 1014.3
20260502223832 21 36 0.0 9.7 0.00 0.03 0.03 61 1014.4
20260502223329 21 352 1.6 3.2 0.00 0.03 0.03 61 1014.5
20260502222845 21 256 1.6 3.2 0.00 0.03 0.03 63 1014.6
20260502222342 21 90 1.6 4.8 0.00 0.03 0.03 62 1014.6
20260502221910 20 266 1.6 8.0 0.00 0.03 0.03 62 1014.8
20260502221346 20 276 6.4 8.0 0.00 0.03 0.03 62 1014.8
20260502220843 20 266 1.6 6.4 0.00 0.03 0.03 64 1014.8
20260502220340 20 151 3.2 6.4 0.00 0.03 0.03 64 1015.0
20260502215835 20 132 1.6 6.4 0.00 0.03 0.03 65 1015.0
20260502215332 19 219 3.2 6.4 0.00 0.03 0.03 65 1015.2
20260502214828 20 70 1.6 6.4 0.00 0.03 0.03 64 1015.3
20260502214345 19 95 3.2 6.4 0.00 0.03 0.03 65 1015.3
20260502213842 18 159 0.0 4.8 0.00 0.03 0.03 68 1015.4
20260502213409 18 68 1.6 11.3 0.00 0.03 0.03 68 1015.4
20260502212846 18 108 6.4 11.3 0.00 0.03 0.03 67 1015.7
20260502212344 18 236 3.2 8.0 0.00 0.03 0.03 67 1015.7
20260502211841 18 80 3.2 8.0 0.00 0.03 0.03 67 1015.8
20260502211404 18 150 1.6 9.7 0.00 0.03 0.03 68 1015.8
20260502210838 18 148 4.8 9.7 0.00 0.03 0.03 67 1015.8
20260502210357 18 110 3.2 9.7 0.00 0.03 0.03 68 1015.8
20260502205847 18 94 4.8 8.0 0.00 0.03 0.03 66 1015.8
20260502205352 18 302 3.2 6.4 0.00 0.03 0.03 65 1016.0
20260502204849 19 250 1.6 6.4 0.00 0.03 0.03 66 1016.1
20260502204347 18 311 1.6 4.8 0.00 0.03 0.03 66 1016.3
20260502203844 18 196 1.6 4.8 0.00 0.03 0.03 66 1016.4
20260502203342 18 264 1.6 8.0 0.00 0.03 0.03 68 1016.5
20260502202840 18 278 3.2 4.8 0.00 0.03 0.03 67 1016.6
20260502202333 18 23 1.6 4.8 0.00 0.03 0.03 67 1016.5
20260502201852 18 213 0.0 4.8 0.00 0.03 0.03 67 1016.7
20260502201331 17 165 1.6 8.0 0.00 0.03 0.03 70 1016.7
20260502200848 17 94 1.6 8.0 0.00 0.03 0.03 70 1016.8
20260502200344 17 82 0.0 6.4 0.00 0.03 0.03 70 1016.8
20260502195911 17 8 3.2 6.4 0.00 0.03 0.03 69 1016.9
20260502195347 17 33 3.2 6.4 0.00 0.03 0.03 68 1016.8
20260502194853 17 216 1.6 4.8 0.00 0.03 0.03 67 1016.9
20260502194331 17 283 1.6 4.8 0.00 0.03 0.03 69 1017.0
20260502193847 17 32 1.6 4.8 0.00 0.03 0.03 71 1017.0
20260502193341 17 219 1.6 4.8 0.00 0.03 0.03 70 1017.0
20260502192846 16 60 1.6 6.4 0.00 0.03 0.03 72 1017.0
20260502192343 16 285 0.0 6.4 0.00 0.03 0.03 71 1017.2
20260502191841 16 268 0.0 6.4 0.00 0.03 0.03 72 1017.1
20260502191339 16 186 1.6 6.4 0.00 0.03 0.03 72 1017.3
20260502190857 15 203 0.0 1.6 0.00 0.03 0.03 75 1017.4
20260502190353 15 210 0.0 6.4 0.00 0.03 0.03 76 1017.4
20260502185849 14 217 1.6 6.4 0.00 0.03 0.03 77 1017.5
20260502185345 15 60 0.0 4.8 0.00 0.03 0.03 76 1017.6
20260502184842 15 320 1.6 4.8 0.00 0.03 0.03 77 1017.7
20260502184340 14 70 1.6 4.8 0.00 0.03 0.03 76 1017.6
20260502183838 14 279 0.0 3.2 0.00 0.03 0.03 77 1017.6
20260502183354 13 1 1.6 6.4 0.00 0.03 0.03 80 1017.3
20260502182413 13 81 1.6 8.0 0.00 0.03 0.03 79 1017.4
20260502181848 13 61 1.6 4.8 0.00 0.03 0.03 79 1017.5